Bangor, ME

8:35 AM EDT on September 24, 2017 (GMT -0400)
Bangor International

Weather History for KBGR - September, 2012

Change the Weather History Date:

Sunday, September 30, 2012

  Actual Average Record
Temperature  
Mean Temperature 57 °F 53 °F  
Max Temperature 60 °F 64 °F 86 °F (1948)
Min Temperature 53 °F 42 °F 27 °F (1942)
Degree Days  
Heating Degree Days 8 12  
Month to date heating degree days 229 209  
Since 1 July heating degree days 231 272  
Cooling Degree Days 0 0  
Month to date cooling degree days 11 23  
Year to date cooling degree days 395 317  
Growing Degree Days 6 (Base 50)    
Moisture  
Dew Point 55 °F    
Average Humidity 97    
Maximum Humidity 100    
Minimum Humidity 93    
Precipitation  
Precipitation 1.52 in 0.15 in 5.27 in (2015)
Month to date precipitation 6.33 3.83  
Year to date precipitation 30.62 30.08  
Snow  
Snow 0.00 in 0.00 in 0.00 in (2002)
Month to date snowfall 0.0 0.0  
Since 1 July snowfall 0.0 0.0  
Since 1 September snowfall 0.0 0.0  
Snow Depth 0.00 in    
Sea Level Pressure  
Sea Level Pressure 29.75 in    
Wind  
Wind Speed 7 mph (NNW)    
Max Wind Speed 14 mph    
Max Gust Speed 20 mph    
Visibility 3 miles    
Events Rain    
T = Trace of Precipitation, MM = Missing Value Source: NWS Daily Summary

Daily Weather History Graph

Daily Weather History Graph

Search for Another Location

Airport or City:

Trip Planner

Search our weather history database for the weather conditions in past years. The results will help you decide how hot, cold, wet, or windy it might be!

Date:

Astronomy

Sep. 30, 2012 Rise Set
Actual Time 6:32 AM EDT 6:16 PM EDT
Civil Twilight 6:03 AM EDT 6:45 PM EDT
Nautical Twilight 5:29 AM EDT 7:19 PM EDT
Astronomical Twilight 4:54 AM EDT 7:54 PM EDT
Moon 6:14 PM EDT (9/30) 7:03 AM EDT (9/30)
Length of Visible Light 12h 42m
Length of Day
11h 44m
Full, 100% of the Moon is Illuminated
Sep 30
Full
Oct 8
Last Quarter
Oct 15
New
Oct 21
First Quarter
Oct 29
Full

Hourly Weather History & Observations

Time (EDT) Temp. Dew Point Humidity Pressure Visibility Wind Dir Wind Speed Gust Speed Precip Events Conditions
12:53 AM 53.1 °F 52.0 °F 96% 29.94 in 2.5 mi NE 5.8 mph - N/A   Overcast
1:39 AM 53.6 °F 53.6 °F 100% 29.93 in 2.5 mi NNE 8.1 mph - N/A   Overcast
1:53 AM 53.1 °F 53.1 °F 100% 29.92 in 2.0 mi NNE 9.2 mph - N/A   Overcast
2:53 AM 53.1 °F 53.1 °F 100% 29.92 in 2.0 mi NNE 8.1 mph - N/A   Overcast
3:53 AM 53.1 °F 53.1 °F 100% 29.91 in 2.0 mi NNE 6.9 mph - 0.00 in   Light Drizzle
4:53 AM 53.1 °F 53.1 °F 100% 29.91 in 2.5 mi NNE 8.1 mph - 0.00 in   Light Drizzle
5:53 AM 53.1 °F 53.1 °F 100% 29.91 in 2.5 mi North 5.8 mph - 0.00 in   Overcast
6:35 AM 53.6 °F 53.6 °F 100% 29.90 in 3.0 mi NNE 6.9 mph - N/A   Overcast
6:53 AM 53.1 °F 53.1 °F 100% 29.89 in 2.0 mi NNE 6.9 mph - N/A   Overcast
7:53 AM 54.0 °F 53.1 °F 97% 29.90 in 2.0 mi NNE 8.1 mph - 0.02 in Rain Rain
8:35 AM 53.6 °F 53.6 °F 100% 29.89 in 1.5 mi North 5.8 mph - 0.07 in Rain Rain
8:53 AM 54.0 °F 54.0 °F 100% 29.89 in 1.5 mi North 6.9 mph - 0.09 in Rain Light Rain
9:40 AM 53.6 °F 53.6 °F 100% 29.88 in 2.0 mi North 5.8 mph - 0.03 in Rain Light Rain
9:53 AM 53.6 °F 53.6 °F 100% 29.88 in 2.0 mi NNW 5.8 mph - N/A Rain Rain
10:27 AM 53.6 °F 53.6 °F 100% 29.86 in 1.2 mi Variable 4.6 mph - 0.23 in Rain Heavy Rain
10:50 AM 53.6 °F 53.6 °F 100% 29.84 in 2.0 mi NNW 8.1 mph - 0.33 in Rain Light Rain
10:53 AM 54.0 °F 54.0 °F 100% 29.84 in 2.0 mi NNW 6.9 mph - 0.34 in Rain Light Rain
11:33 AM 53.6 °F 53.6 °F 100% 29.83 in 2.0 mi NW 5.8 mph - 0.05 in Rain Rain
11:53 AM 55.0 °F 54.0 °F 96% 29.81 in 2.0 mi NNW 6.9 mph - 0.11 in Rain Rain
12:03 PM 55.4 °F 53.6 °F 94% 29.81 in 3.0 mi NNW 6.9 mph - 0.01 in Rain Light Rain
12:53 PM 55.0 °F 55.0 °F 100% 29.77 in 3.0 mi NNW 6.9 mph - 0.12 in Rain Rain
1:21 PM 55.4 °F 55.4 °F 100% 29.75 in 3.0 mi NNW 5.8 mph - 0.06 in Rain Rain
1:42 PM 55.4 °F 55.4 °F 100% 29.73 in 3.0 mi North 6.9 mph - 0.13 in Rain Rain
1:53 PM 55.9 °F 55.0 °F 97% 29.72 in 3.0 mi NNW 5.8 mph - 0.16 in Rain Rain
1:58 PM 55.4 °F 55.4 °F 100% 29.72 in 2.5 mi NNW 8.1 mph - 0.03 in Rain Heavy Rain
2:12 PM 55.4 °F 55.4 °F 100% 29.72 in 3.0 mi NNE 5.8 mph - 0.10 in Rain Heavy Rain
2:26 PM 55.4 °F 55.4 °F 100% 29.71 in 2.0 mi North 4.6 mph - 0.16 in Rain Rain
2:53 PM 55.9 °F 55.9 °F 100% 29.68 in 2.0 mi NNW 4.6 mph - 0.24 in Rain Rain
3:37 PM 57.2 °F 57.2 °F 100% 29.65 in 1.5 mi NNE 6.9 mph - 0.09 in Rain Rain
3:53 PM 57.9 °F 57.9 °F 100% 29.63 in 1.5 mi NNE 5.8 mph - 0.09 in Rain Light Rain
4:12 PM 60.8 °F 59.0 °F 94% 29.62 in 2.0 mi NNE 8.1 mph - 0.00 in   Overcast
4:53 PM 60.1 °F 59.0 °F 96% 29.60 in 2.0 mi Calm Calm - 0.00 in   Overcast
5:37 PM 59.0 °F 59.0 °F 100% 29.58 in 1.2 mi WSW 5.8 mph - 0.04 in Rain Heavy Rain
5:53 PM 59.0 °F 57.9 °F 96% 29.59 in 1.2 mi SW 10.4 mph - 0.16 in Rain Rain
6:02 PM 57.2 °F 57.2 °F 100% 29.59 in 1.2 mi SW 6.9 mph - 0.03 in Rain Rain
6:29 PM 57.2 °F 57.2 °F 100% 29.59 in 1.2 mi SW 5.8 mph - 0.10 in Rain Rain
6:51 PM 57.2 °F 57.2 °F 100% 29.58 in 1.2 mi West 4.6 mph - 0.14 in Rain Light Rain
6:53 PM 57.9 °F 57.0 °F 97% 29.58 in 1.2 mi West 5.8 mph - 0.14 in Rain Light Rain
7:02 PM 57.2 °F 55.4 °F 94% 29.58 in 10.0 mi WSW 5.8 mph - 0.00 in   Overcast
7:31 PM 57.2 °F 57.2 °F 100% 29.60 in 10.0 mi SSW 4.6 mph - 0.00 in   Overcast
7:53 PM 55.9 °F 55.9 °F 100% 29.59 in 10.0 mi Calm Calm - 0.00 in   Overcast
8:53 PM 55.9 °F 55.0 °F 97% 29.62 in 10.0 mi SSW 10.4 mph - N/A   Overcast
9:53 PM 55.9 °F 55.0 °F 97% 29.63 in 10.0 mi SSW 9.2 mph - N/A   Overcast
10:24 PM 55.4 °F 55.4 °F 100% 29.63 in 10.0 mi South 6.9 mph - N/A   Overcast
10:53 PM 55.9 °F 54.0 °F 93% 29.64 in 10.0 mi South 10.4 mph - N/A   Overcast
11:53 PM 55.0 °F 53.1 °F 93% 29.64 in 10.0 mi South 9.2 mph - N/A   Overcast